Location: New Frontier Mobile Home Park
(32.8448°N, 116.9675°W)
Time: 22:41:11
(UTC+00:00)

Cosmos 1455 - Pass Details

Date: 14 July 2020
Orbit: 500 x 521 km, 82.5° (Epoch: 05 August)

Event Time Altitude Azimuth Distance (km) Brightness Sun altitude
Rises 03:27:41 0° 358° (N) 2,649 6.3 -6.4°
Reaches altitude 10° 03:29:52 10° 3° (N) 1,759 5.3 -6.8°
Maximum altitude 03:33:40 56° 82° (E) 621 2.3 -7.5°
Drops below altitude 10° 03:37:26 10° 162° (SSE) 1,748 4.4 -8.1°
Enters shadow 03:38:46 - 165° (SSE) 2,293 5.0 -8.4°
